When you browse on this site, cookies collect data to enhance your experience and personalize the content and advertising you see.
Visit our Privacy Policy to learn more. By continuing to use the site, you agree to this use of cookies and data.
  • In Österreich
  • Länderverzeichnis
  • Für 7 Tage
  • Wassertemperatur
  • Wetterkarte
  • News
  • Widgets
  • user-avatar
    Anmelden

    Stündliche Wetter Plewen

    Heute, 16 Oktober, Mittwoch

    Zeit Temperatur Niederschläge Wind Luftdruck Luftfeuchtigkeit
    00:00 +18°C° 0 mm 1 m/S 747 mmHg 47%
    01:00 +16°C° 0 mm 1 m/S 747 mmHg 48%
    02:00 +16°C° 0 mm 1 m/S 747 mmHg 50%
    03:00 +16°C° 0 mm 1 m/S 747 mmHg 52%
    04:00 +15°C° 0 mm 1 m/S 747 mmHg 53%
    05:00 +14°C° 0 mm 0 m/S 746 mmHg 55%
    06:00 +14°C° 0 mm 0 m/S 746 mmHg 54%
    07:00 +15°C° 0 mm 0 m/S 747 mmHg 53%
    08:00 +16°C° 0 mm 0 m/S 747 mmHg 49%
    09:00 +20°C° 0 mm 1 m/S 747 mmHg 45%
    10:00 +22°C° 0 mm 1 m/S 747 mmHg 40%
    11:00 +24°C° 0 mm 1 m/S 747 mmHg 35%
    12:00 +25°C° 0 mm 1 m/S 747 mmHg 33%
    13:00 +26°C° 0 mm 2 m/S 746 mmHg 31%
    14:00 +26°C° 0 mm 2 m/S 746 mmHg 29%
    15:00 +26°C° 0 mm 2 m/S 746 mmHg 32%
    16:00 +25°C° 0 mm 2 m/S 746 mmHg 35%
    17:00 +24°C° 0 mm 2 m/S 746 mmHg 37%
    18:00 +22°C° 0 mm 1 m/S 746 mmHg 41%
    19:00 +21°C° 0 mm 1 m/S 746 mmHg 46%
    20:00 +19°C° 0 mm 1 m/S 746 mmHg 50%
    21:00 +18°C° 0 mm 1 m/S 747 mmHg 52%
    22:00 +18°C° 0 mm 1 m/S 747 mmHg 53%
    23:00 +18°C° 0 mm 1 m/S 747 mmHg 54%

    Morgen, 17 Oktober, Donnerstag

    Zeit Temperatur Niederschläge Wind Luftdruck Luftfeuchtigkeit
    00:00 +16°C° 0 mm 1 m/S 747 mmHg 55%
    01:00 +15°C° 0 mm 0 m/S 747 mmHg 56%
    02:00 +15°C° 0 mm 0 m/S 747 mmHg 57%
    03:00 +14°C° 0 mm 0 m/S 747 mmHg 58%
    04:00 +14°C° 0 mm 0 m/S 747 mmHg 59%
    05:00 +13°C° 0 mm 0 m/S 747 mmHg 60%
    06:00 +14°C° 0 mm 0 m/S 747 mmHg 58%
    07:00 +15°C° 0 mm 0 m/S 747 mmHg 56%
    08:00 +16°C° 0 mm 0 m/S 747 mmHg 54%
    09:00 +18°C° 0 mm 0 m/S 747 mmHg 49%
    10:00 +22°C° 0 mm 1 m/S 747 mmHg 43%
    11:00 +24°C° 0 mm 1 m/S 748 mmHg 37%
    12:00 +25°C° 0 mm 1 m/S 747 mmHg 35%
    13:00 +26°C° 0 mm 1 m/S 747 mmHg 33%
    14:00 +27°C° 0 mm 1 m/S 747 mmHg 30%
    15:00 +26°C° 0 mm 1 m/S 747 mmHg 32%
    16:00 +25°C° 0 mm 1 m/S 746 mmHg 34%
    17:00 +24°C° 0 mm 1 m/S 746 mmHg 36%
    18:00 +23°C° 0 mm 1 m/S 747 mmHg 40%
    19:00 +21°C° 0 mm 1 m/S 747 mmHg 44%
    20:00 +19°C° 0 mm 1 m/S 747 mmHg 47%
    21:00 +19°C° 0 mm 1 m/S 747 mmHg 49%
    22:00 +19°C° 0 mm 1 m/S 747 mmHg 51%
    23:00 +18°C° 0 mm 1 m/S 748 mmHg 52%

    übermorgen, 18 Oktober, Freitag

    Zeit Temperatur Niederschläge Wind Luftdruck Luftfeuchtigkeit
    00:00 +18°C° 0 mm 1 m/S 747 mmHg 53%
    01:00 +16°C° 0 mm 1 m/S 747 mmHg 54%
    02:00 +16°C° 0 mm 1 m/S 747 mmHg 55%
    03:00 +16°C° 0 mm 1 m/S 747 mmHg 56%
    04:00 +15°C° 0 mm 1 m/S 747 mmHg 58%
    05:00 +14°C° 0 mm 0 m/S 747 mmHg 59%
    06:00 +15°C° 0 mm 0 m/S 747 mmHg 57%
    07:00 +16°C° 0 mm 0 m/S 748 mmHg 55%
    08:00 +17°C° 0 mm 0 m/S 748 mmHg 53%
    09:00 +19°C° 0 mm 0 m/S 748 mmHg 47%
    10:00 +23°C° 0 mm 1 m/S 748 mmHg 42%
    11:00 +25°C° 0 mm 1 m/S 748 mmHg 36%
    12:00 +26°C° 0 mm 2 m/S 747 mmHg 34%
    13:00 +27°C° 0 mm 2 m/S 747 mmHg 31%
    14:00 +28°C° 0 mm 2 m/S 746 mmHg 29%
    15:00 +27°C° 0 mm 2 m/S 746 mmHg 31%
    16:00 +26°C° 0 mm 2 m/S 746 mmHg 33%
    17:00 +25°C° 0 mm 2 m/S 746 mmHg 35%
    18:00 +23°C° 0 mm 2 m/S 746 mmHg 39%
    19:00 +21°C° 0 mm 2 m/S 746 mmHg 42%
    20:00 +19°C° 0 mm 2 m/S 746 mmHg 46%
    21:00 +20°C° 0 mm 1 m/S 746 mmHg 48%
    22:00 +19°C° 0 mm 1 m/S 747 mmHg 49%
    23:00 +19°C° 0 mm 1 m/S 747 mmHg 51%

    19 Oktober, Samstag

    Zeit Temperatur Niederschläge Wind Luftdruck Luftfeuchtigkeit
    00:00 +18°C° 0 mm 1 m/S 747 mmHg 52%
    01:00 +18°C° 0 mm 1 m/S 747 mmHg 53%
    02:00 +18°C° 0 mm 1 m/S 747 mmHg 55%
    03:00 +16°C° 0 mm 1 m/S 747 mmHg 55%
    04:00 +16°C° 0 mm 1 m/S 747 mmHg 56%
    05:00 +16°C° 0 mm 1 m/S 747 mmHg 57%
    06:00 +16°C° 0 mm 0 m/S 747 mmHg 55%
    07:00 +16°C° 0 mm 0 m/S 747 mmHg 53%
    08:00 +17°C° 0 mm 0 m/S 747 mmHg 52%
    09:00 +19°C° 0 mm 0 m/S 747 mmHg 46%
    10:00 +23°C° 0 mm 1 m/S 747 mmHg 41%
    11:00 +25°C° 0 mm 1 m/S 747 mmHg 36%
    12:00 +26°C° 0 mm 1 m/S 747 mmHg 34%
    13:00 +27°C° 0 mm 1 m/S 747 mmHg 32%
    14:00 +28°C° 0 mm 2 m/S 746 mmHg 31%
    15:00 +27°C° 0 mm 2 m/S 746 mmHg 33%
    16:00 +26°C° 0 mm 2 m/S 746 mmHg 35%
    17:00 +25°C° 0 mm 2 m/S 746 mmHg 38%
    18:00 +24°C° 0 mm 1 m/S 746 mmHg 41%
    19:00 +22°C° 0 mm 1 m/S 747 mmHg 45%
    20:00 +21°C° 0 mm 1 m/S 747 mmHg 48%
    21:00 +20°C° 0 mm 1 m/S 747 mmHg 49%
    22:00 +20°C° 0 mm 1 m/S 748 mmHg 50%
    23:00 +19°C° 0 mm 1 m/S 748 mmHg 51%

    20 Oktober, Sonntag

    Zeit Temperatur Niederschläge Wind Luftdruck Luftfeuchtigkeit
    00:00 +19°C° 0 mm 1 m/S 748 mmHg 52%
    01:00 +19°C° 0 mm 1 m/S 748 mmHg 52%
    02:00 +18°C° 0 mm 1 m/S 748 mmHg 53%
    03:00 +18°C° 0 mm 1 m/S 748 mmHg 53%
    04:00 +18°C° 0 mm 1 m/S 748 mmHg 54%
    05:00 +18°C° 0 mm 1 m/S 748 mmHg 55%
    06:00 +18°C° 0 mm 1 m/S 748 mmHg 53%
    07:00 +17°C° 0 mm 0 m/S 748 mmHg 52%
    08:00 +18°C° 0 mm 0 m/S 748 mmHg 51%
    09:00 +20°C° 0 mm 0 m/S 749 mmHg 46%
    10:00 +24°C° 0 mm 1 m/S 749 mmHg 40%
    11:00 +26°C° 0 mm 1 m/S 749 mmHg 35%
    12:00 +27°C° 0 mm 1 m/S 748 mmHg 33%
    13:00 +28°C° 0 mm 2 m/S 748 mmHg 31%
    14:00 +29°C° 0 mm 2 m/S 748 mmHg 29%
    15:00 +28°C° 0 mm 2 m/S 748 mmHg 31%
    16:00 +27°C° 0 mm 2 m/S 748 mmHg 33%
    17:00 +26°C° 0 mm 2 m/S 747 mmHg 35%
    18:00 +24°C° 0 mm 1 m/S 748 mmHg 39%
    19:00 +23°C° 0 mm 1 m/S 748 mmHg 42%
    20:00 +21°C° 0 mm 1 m/S 748 mmHg 46%
    21:00 +21°C° 0 mm 1 m/S 749 mmHg 48%
    22:00 +20°C° 0 mm 1 m/S 749 mmHg 49%
    23:00 +20°C° 0 mm 1 m/S 749 mmHg 51%

    21 Oktober, Montag

    Zeit Temperatur Niederschläge Wind Luftdruck Luftfeuchtigkeit
    00:00 +19°C° 0 mm 1 m/S 749 mmHg 52%
    01:00 +19°C° 0 mm 1 m/S 749 mmHg 54%
    02:00 +18°C° 0 mm 1 m/S 749 mmHg 55%
    03:00 +18°C° 0 mm 1 m/S 749 mmHg 56%
    04:00 +18°C° 0 mm 1 m/S 749 mmHg 57%
    05:00 +16°C° 0 mm 1 m/S 749 mmHg 58%
    06:00 +18°C° 0 mm 1 m/S 749 mmHg 57%
    07:00 +18°C° 0 mm 1 m/S 750 mmHg 56%
    08:00 +19°C° 0 mm 1 m/S 750 mmHg 55%
    09:00 +21°C° 0 mm 1 m/S 750 mmHg 49%
    10:00 +23°C° 0 mm 1 m/S 750 mmHg 43%
    11:00 +25°C° 0 mm 2 m/S 750 mmHg 38%
    12:00 +26°C° 0 mm 2 m/S 750 mmHg 36%
    13:00 +27°C° 0 mm 2 m/S 750 mmHg 34%
    14:00 +28°C° 0 mm 2 m/S 749 mmHg 32%
    15:00 +27°C° 0 mm 2 m/S 749 mmHg 34%
    16:00 +26°C° 0 mm 2 m/S 749 mmHg 36%
    17:00 +25°C° 0 mm 1 m/S 749 mmHg 38%
    18:00 +23°C° 0 mm 1 m/S 749 mmHg 42%
    19:00 +22°C° 0 mm 1 m/S 749 mmHg 46%
    20:00 +20°C° 0 mm 1 m/S 750 mmHg 49%
    21:00 +20°C° 0 mm 1 m/S 750 mmHg 51%
    22:00 +19°C° 0 mm 1 m/S 750 mmHg 53%
    23:00 +18°C° 0 mm 1 m/S 750 mmHg 54%
    Mehr zeigen